Regional Weather Roundup
Issued by NWS

Home | Current Version | Previous Version | Graphics & Text | Print | Product List | Glossary On
Versions: 1 2 3 4 5 6 7 8 9 10 11 12 13 14 15 16 17 18 19 20 21 22 23 24 25 26 27 28 29 30 31 32 33 34 35 36 37 38 39 40 41 42 43 44 45 46 47 48 49 50
000
ASUS45 KCYS 251110
RWRWY

WYOMING REGIONAL WEATHER ROUNDUP
NATIONAL WEATHER SERVICE CHEYENNE WY
400 AM MST SAT FEB 25 2017

NOTE:  "FAIR" INDICATES FEW OR NO CLOUDS BELOW 12,000 FEET
WITH NO SIGNIFICANT WEATHER AND/OR OBSTRUCTIONS TO VISIBILITY.

WYZ001-251200-
YELLOWSTONE NATIONAL PARK

CITY           SKY/WX    TMP DP  RH WIND       PRES   REMARKS
LK YELLOWSTONE   N/A      2   0  91 CALM      29.88F
W YELLOWSTONE  NOT AVBL

$$
WYZ002>013-054>058-071-098>099-251200-
NORTHERN WYOMING

CITY           SKY/WX    TMP DP  RH WIND       PRES   REMARKS
JACKSON        FAIR       9   3  78 SW3       29.97F
CODY           FAIR      20   5  52 W6        29.92F WCI  12
GREYBULL       MOCLDY    24  21  88 CALM      29.96F
WORLAND        CLOUDY    17  15  92 S7        29.96F WCI   8
SHERIDAN       FAIR      21  16  81 SW7       29.95F WCI  12
BUFFALO        FAIR      18  10  71 NW5       29.91F WCI  11
GILLETTE       CLOUDY    21  18  88 W12       29.92F WCI   9
HULETT         FLURRIES  23  19  86 SW10      29.91F WCI  12
NEWCASTLE      FAIR      12  10  92 N5        29.94F WCI   4

$$
WYZ014>020-022>026-101>103-251200-
CENTRAL WYOMING

CITY           SKY/WX    TMP DP  RH WIND       PRES   REMARKS
BIG PINEY      FAIR      -8 -12  83 E6        29.97F WCI -21
PINEDALE       FAIR      -9 -15  77 N8        29.97S WCI -26
DUBOIS         FAIR       0  -8  71 NW13      29.87F WCI -18
LANDER         FAIR       9   1  70 SE3       29.92F
RIVERTON       FAIR       8  -2  63 W14       29.93F WCI  -8
CASPER         CLOUDY    13   7  77 SW12G21   29.93S WCI  -1
DOUGLAS        FAIR      -2  -7  79 NW5       29.94S WCI -12

$$
WYZ021-027>030-104>119-251200-
SOUTHERN WYOMING

CITY           SKY/WX    TMP DP  RH WIND       PRES   REMARKS
EVANSTON       FAIR       5   0  79 S7        29.97F WCI  -7
KEMMERER       FLURRIES N/A N/A N/A CALM      29.96F
FORT BRIDGER   FAIR       6  -2  67 W7        30.01F WCI  -5
ROCK SPRINGS   FAIR       6   0  76 SW15      29.98F WCI -12
DIXON            N/A     -2  -6  81 CALM      30.05F
RAWLINS        FAIR       6  -1  73 SW14      29.94F WCI -11
SARATOGA       FAIR       9   1  72 SW12      29.96S WCI  -6
LARAMIE        FAIR       8  -2  63 SW12      29.86F WCI  -7
CHEYENNE       FAIR      10   0  63 W7        29.89F WCI  -1
TORRINGTON     CLOUDY     0  -4  83 NW6       29.96S FOG     WCI -12
PINE BLUFFS    FAIR       7   3  85 NW8       29.94F WCI  -6

$$



USA.gov is the U.S. government's official web portal to all federal, state and local government web resources and services.